CAPE
nan nan nan nan nan nan nan nan nan nan nan nan nan nan nan nan nan nan nan nan nan nan nan nan nan nan nan 0 10 10 19 27 30 30 34 36 39 39 43 44 44 47 46 46 46 44 45 51 51 53 59 66 77 77 87 94 94 97 102 106 106 109 113 109 109 109 105 109 104 104 93 83 79 79 85 87 91 91 87 83 83 84 86 98 98 113
nan nan nan nan nan nan nan nan nan nan nan nan nan nan nan nan nan nan nan nan nan nan nan nan nan nan nan nan 9 9 21 29 33 33 36 39 43 43 45 46 46 52 56 54 54 52 48 47 47 51 55 60 66 66 76 83 83 88 93 97 97 97 101 109 109 108 100 102 97 97 84 79 86 86 93 95 96 96 96 90 90 90 101 119 119 130
nan nan nan nan nan nan nan nan nan nan nan nan nan nan nan nan nan nan nan nan nan nan nan nan nan nan nan nan 10 10 19 30 36 36 38 42 42 42 45 48 48 51 55 58 58 55 50 48 48 48 50 53 57 57 64 72 72 74 82 82 82 83 87 88 88 89 86 85 78 78 72 77 88 88 96 101 103 103 104 98 98 104 118 134 134 138
nan nan nan nan nan nan nan nan nan nan nan nan nan nan nan nan nan nan nan nan nan nan nan nan nan nan nan nan 0 0 20 30 36 36 38 39 40 40 42 49 49 51 54 52 52 53 51 50 50 47 49 52 52 52 54 61 61 66 68 68 68 68 70 71 71 74 74 69 67 67 70 80 88 88 97 102 106 106 114 111 111 117 137 142 142 143
nan nan nan nan nan nan nan nan nan nan nan nan nan nan nan nan nan nan nan nan nan nan nan nan nan nan nan nan nan nan 11 25 30 30 34 35 36 36 42 45 45 45 47 47 47 48 50 50 50 52 52 50 47 47 51 52 52 54 59 58 58 63 62 65 65 66 69 67 71 71 76 81 87 87 97 106 113 113 119 126 126 136 149 156 156 154
nan nan nan nan nan nan nan nan nan nan nan nan nan nan nan nan nan nan nan nan nan nan nan nan nan nan nan nan nan nan 2 18 25 25 31 37 38 38 42 43 43 42 44 44 44 48 51 51 51 50 49 47 46 46 47 45 45 48 49 57 57 63 63 61 61 62 63 64 67 67 72 73 78 78 86 99 113 113 119 131 131 137 157 170 170 167
nan nan nan nan nan nan nan nan nan nan nan nan nan nan nan nan nan nan nan nan nan nan nan nan nan nan nan nan nan nan 0 12 23 23 28 33 39 39 43 47 47 48 43 41 41 44 45 49 49 50 49 45 45 45 45 41 41 39 46 51 51 59 62 69 69 65 68 65 69 69 65 62 64 64 69 83 102 102 115 122 122 133 154 172 172 175
nan nan nan nan nan nan nan nan nan nan nan nan nan nan nan nan nan nan nan nan nan nan nan nan nan nan nan nan nan nan nan nan nan nan nan nan 9 9 25 41 41 49 54 55 55 51 51 53 53 54 55 57 55 55 52 47 47 40 35 32 32 35 41 55 55 63 70 71 74 74 71 68 65 65 68 67 75 75 93 110 110 118 124 136 136 152
nan nan nan nan nan nan nan nan nan nan nan nan nan nan nan nan nan nan nan nan nan nan nan nan nan nan nan nan nan nan nan nan nan nan nan nan nan nan 0 33 33 55 70 74 74 77 71 72 72 70 73 70 70 70 65 54 54 42 37 35 35 33 34 37 37 48 54 66 67 67 71 75 74 74 75 75 79 79 83 94 94 106 119 129 129 137
nan nan nan nan nan nan nan nan nan nan nan nan nan nan nan nan nan nan nan nan nan nan nan nan nan nan nan nan nan nan nan nan 17 17 46 15 47 47 24 28 28 34 70 84 84 89 91 92 92 88 84 83 79 79 72 57 57 44 38 34 34 35 34 35 35 40 46 57 66 66 73 75 77 77 79 81 82 82 80 85 85 87 101 117 117 128
nan nan nan nan nan nan nan nan nan nan nan nan nan nan nan nan nan nan nan nan nan nan nan nan nan nan nan nan nan nan nan nan nan nan nan 10 28 28 35 34 34 42 63 72 72 84 87 93 93 92 90 88 80 80 73 57 57 48 46 44 44 45 45 48 48 49 50 58 61 61 70 79 83 83 85 83 85 85 80 81 81 77 81 94 94 112
nan nan nan nan nan nan nan nan nan nan nan nan nan nan nan nan nan nan nan nan nan nan nan nan nan nan nan nan nan nan nan nan nan nan nan nan nan nan nan nan nan 5 20 42 42 55 72 84 84 84 78 72 79 79 73 59 59 61 61 64 64 65 65 65 65 65 65 67 70 70 76 73 81 81 88 87 86 86 83 79 79 79 76 83 83 97
nan nan nan nan nan nan nan nan nan nan nan nan nan nan nan nan nan nan nan nan nan nan nan nan nan nan nan nan nan nan nan nan nan nan nan nan nan nan nan nan nan nan nan nan nan nan 26 58 58 61 61 55 60 60 61 58 58 66 71 80 80 80 81 80 80 75 78 75 77 77 75 73 74 74 76 78 77 77 77 78 78 74 76 78 78 90
nan nan nan nan nan nan nan nan nan nan nan nan nan nan nan nan nan nan nan nan nan nan nan nan nan nan nan nan nan nan nan nan nan nan nan nan nan nan nan nan nan nan nan nan nan nan 8 23 23 5 39 41 41 41 45 62 62 68 72 81 81 85 83 81 81 79 78 81 78 78 80 74 76 76 72 76 78 78 74 75 75 75 77 80 80 89
nan nan nan nan nan nan nan nan nan nan nan nan nan nan nan nan nan nan nan nan nan nan nan nan nan nan nan nan nan nan nan nan nan nan nan nan nan nan nan nan nan 0 nan nan nan nan 15 12 12 0 0 7 13 13 33 47 47 71 74 79 79 77 77 77 77 77 79 80 79 79 78 78 73 73 74 74 76 76 75 76 76 76 80 80 80 85
nan nan nan nan nan nan nan nan nan nan nan nan nan nan nan nan nan nan nan nan nan nan nan nan nan nan nan nan nan nan nan nan nan nan nan nan nan nan nan nan nan nan 1 0 0 1 1 1 1 0 0 13 36 36 48 64 64 73 72 71 71 69 67 70 70 68 70 75 72 72 74 72 69 69 67 67 68 68 71 72 72 73 78 79 79 78
nan nan nan nan nan nan nan nan nan nan nan nan nan nan nan nan nan nan nan nan nan nan nan nan nan nan nan nan nan nan nan nan nan nan nan nan nan nan nan nan nan nan 0 0 0 nan nan 0 0 1 2 29 51 51 57 65 65 72 75 74 74 70 65 68 68 68 64 69 65 65 65 62 63 63 62 57 61 61 61 67 67 69 75 76 76 79
nan nan nan nan nan nan nan nan nan nan nan nan nan nan nan nan nan nan nan nan nan nan nan nan nan nan nan nan nan nan nan nan nan nan nan nan nan nan nan nan nan nan nan nan nan nan 1 0 0 0 12 52 60 60 65 74 74 77 77 77 77 71 72 68 68 65 67 66 67 67 65 58 54 54 57 55 55 55 56 61 61 62 72 74 74 75
nan nan nan nan nan nan nan nan nan nan nan nan nan nan nan nan nan nan nan nan nan nan nan nan nan nan nan nan nan nan nan nan nan nan nan nan nan nan nan nan nan nan nan nan nan 1 2 1 1 17 50 65 70 70 78 79 79 82 86 82 82 77 73 68 68 69 72 72 70 70 68 61 57 57 54 52 53 53 55 60 60 63 68 74 74 80
nan nan nan nan nan nan nan nan nan nan nan nan nan nan nan nan nan nan nan nan nan nan nan nan nan nan nan nan nan nan nan nan nan nan nan nan nan nan nan nan nan nan nan nan nan nan nan nan nan 6 30 50 70 70 79 83 83 88 88 87 87 80 75 74 74 77 76 79 80 80 73 70 62 62 57 56 55 55 57 63 63 67 71 75 75 78
nan nan nan nan nan nan nan nan nan nan nan 0 nan nan nan nan nan nan nan nan nan nan nan nan nan nan nan nan nan nan nan nan nan nan 0 0 nan nan nan nan nan nan nan nan nan nan nan nan nan nan 13 43 60 60 69 78 78 85 85 84 84 81 77 73 73 76 82 84 80 80 84 77 72 72 66 61 57 57 61 65 65 70 72 80 80 84
nan nan nan nan nan nan nan nan nan nan 1 0 nan nan nan nan nan nan nan nan nan nan nan nan nan nan nan nan nan nan nan nan 1 1 2 4 1 1 nan nan nan nan nan nan nan nan nan nan nan nan 9 39 49 49 55 63 63 70 75 77 77 73 70 72 72 76 80 83 88 88 86 86 83 83 78 73 70 70 66 66 66 71 77 84 84 87
nan nan nan nan nan nan nan nan nan nan nan nan nan nan nan nan nan nan nan nan nan nan nan nan nan nan 1 1 0 0 nan nan 3 3 2 6 3 3 nan nan nan nan nan nan nan nan nan nan nan nan 7 36 38 38 44 50 50 57 60 62 62 60 64 67 67 72 75 80 83 83 81 83 86 86 84 81 82 82 79 76 76 72 76 80 80 83
nan nan nan nan nan nan nan nan nan nan 0 1 1 1 nan nan 0 0 1 0 0 nan nan nan nan nan nan nan nan nan nan nan nan nan nan nan nan nan nan nan nan nan nan nan nan nan nan nan nan nan 0 27 37 37 40 44 44 49 51 52 52 49 52 55 55 62 71 74 77 77 79 78 81 81 86 86 85 85 86 85 85 88 81 78 78 77
nan nan nan nan nan 1 0 3 11 11 8 8 7 7 9 13 12 12 0 nan nan nan nan nan nan nan nan 1 nan nan nan nan nan nan nan nan nan nan nan nan nan nan nan nan nan nan nan nan nan nan nan 9 33 33 41 44 44 50 52 54 54 51 47 44 44 49 59 65 72 72 73 75 78 78 78 83 87 87 88 91 91 89 86 80 80 75
16 14 20 25 25 45 49 46 42 42 40 27 17 17 5 1 nan nan nan nan nan nan nan nan nan nan nan nan nan nan nan nan nan nan nan nan nan nan nan nan nan nan nan nan nan nan nan nan nan nan nan nan 27 27 38 41 41 45 51 57 57 58 52 45 45 43 52 63 70 70 71 75 77 77 77 81 81 81 87 92 92 88 87 81 81 75
99 78 68 54 54 46 43 50 69 69 93 78 29 29 nan nan nan nan nan nan nan nan nan nan nan nan nan nan nan nan nan nan nan nan nan nan nan nan nan nan nan nan nan nan nan nan 0 nan nan nan nan nan 5 5 28 36 36 43 49 54 54 61 61 55 55 54 53 60 64 64 70 73 74 74 76 77 77 77 81 82 82 87 83 85 85 81
50 37 31 33 33 37 47 65 78 78 76 66 59 59 24 nan nan nan nan nan nan nan nan nan nan nan nan nan nan nan nan 0 nan nan nan nan nan nan nan nan nan nan 0 0 0 1 18 8 8 1 nan nan nan nan 9 30 30 38 47 56 56 65 65 67 67 60 55 57 61 61 71 72 77 77 78 77 80 80 81 77 77 82 85 67 67 39
17 20 30 41 41 49 60 64 49 49 41 35 40 40 19 nan nan nan nan nan nan nan nan nan nan nan nan nan nan nan nan 1 nan nan nan nan nan nan nan nan nan 0 0 0 0 2 6 1 1 nan nan nan nan nan nan 24 24 32 46 53 53 61 65 66 66 62 55 52 57 57 66 74 77 77 74 76 75 75 74 80 80 78 67 50 50 27
2 18 35 39 39 38 28 6 11 11 22 27 29 29 18 0 nan nan nan nan nan nan nan 1 1 nan nan nan 0 0 0 nan nan nan nan nan 0 0 nan 0 0 2 1 1 1 2 nan nan nan nan nan nan nan nan nan nan nan 0 16 42 42 46 53 57 57 58 55 50 49 49 60 64 71 71 73 72 74 74 74 80 80 77 43 21 21 18
0 2 0 nan nan nan nan nan nan nan 12 20 20 20 11 nan nan nan nan nan nan nan nan nan nan nan nan 0 1 1 nan nan nan nan nan nan 2 2 2 1 1 1 1 2 2 2 0 nan nan nan nan nan nan nan nan nan nan nan nan 0 0 9 35 34 34 42 45 41 47 47 50 63 66 66 72 75 73 73 79 85 85 78 23 12 12 10
nan nan nan nan nan nan nan nan nan nan nan nan nan nan nan 0 nan nan nan nan nan nan nan nan nan 2 2 1 3 3 4 0 7 7 8 4 7 7 9 9 9 11 11 7 7 1 0 2 2 1 2 4 2 2 4 6 6 nan nan nan nan nan 1 13 13 22 20 44 51 51 52 52 59 59 63 67 74 74 81 83 83 81 37 14 14 14
nan nan nan nan nan nan nan nan nan nan nan nan nan nan nan nan 3 3 1 1 1 1 1 2 2 3 5 3 3 3 2 0 13 13 19 3 8 8 8 10 10 9 7 4 4 2 2 3 3 8 9 10 11 11 8 11 11 7 0 nan nan nan nan nan nan 0 14 20 31 31 55 52 58 58 62 67 72 72 78 84 84 94 87 31 31 23
nan nan nan nan nan nan nan nan nan nan nan nan nan nan nan 0 1 1 5 4 4 3 3 3 3 6 4 2 3 3 1 0 14 14 19 2 8 8 10 9 9 10 6 6 6 7 6 6 6 7 7 4 1 1 1 2 2 8 0 1 1 nan nan 3 3 15 13 19 8 8 13 14 44 44 41 53 57 57 68 76 76 83 90 74 74 45
nan nan nan nan nan nan nan nan nan nan nan nan nan nan 1 1 1 1 3 4 4 2 nan nan nan nan 0 0 1 1 0 nan 12 12 29 12 12 12 16 14 14 11 7 13 13 5 3 nan nan 4 1 1 nan nan nan 2 2 11 8 13 13 4 1 2 2 6 13 16 14 14 6 6 8 8 18 36 48 48 60 72 72 80 88 103 103 88
nan nan nan nan nan nan nan nan nan nan 0 0 0 0 1 1 1 1 0 0 0 1 4 0 0 0 nan nan nan nan 1 1 19 19 39 22 19 19 20 21 21 15 13 10 10 1 nan nan nan 4 5 1 0 0 nan 1 1 1 2 0 0 0 0 2 2 6 9 14 14 14 10 9 19 19 23 51 61 61 70 75 75 78 88 105 105 107
nan nan nan nan nan nan nan nan nan nan 0 0 nan nan 0 nan nan nan nan nan nan nan nan 6 6 3 13 2 3 3 5 12 26 26 45 30 18 18 15 22 22 28 10 1 1 nan nan 0 0 1 1 0 nan nan 1 0 0 nan nan nan nan nan nan nan nan nan 1 6 7 7 11 20 30 30 37 66 60 60 75 83 83 74 84 88 88 101
nan nan nan nan nan nan nan nan nan nan 0 nan nan nan nan nan nan nan nan nan nan nan nan nan nan 0 20 35 30 30 31 35 30 30 22 16 10 10 15 24 24 23 7 0 0 1 0 0 0 0 nan nan 2 2 2 nan nan nan nan nan nan nan nan nan nan nan nan 0 4 4 7 6 4 4 13 23 28 28 30 26 26 52 66 72 72 84
nan nan nan nan nan nan nan nan nan nan nan nan 0 0 nan nan nan nan nan nan nan nan nan 1 1 5 18 33 44 44 30 12 5 5 6 8 11 11 21 23 23 11 7 5 5 2 1 nan nan nan nan nan nan nan nan nan nan nan nan nan nan nan nan nan nan nan nan nan 1 1 0 nan 0 0 9 18 29 29 31 28 28 44 48 41 41 65
nan nan nan 0 0 nan nan nan nan nan nan 0 2 2 1 2 nan nan nan 0 0 2 3 6 6 7 7 10 8 8 6 4 6 6 4 5 11 11 15 12 12 9 7 5 5 4 2 1 1 0 0 nan nan nan nan nan nan nan nan nan nan nan nan nan nan nan nan nan nan nan nan nan 2 2 6 10 18 18 20 18 18 26 36 30 30 30
0 nan nan 0 0 1 2 1 nan nan nan 0 0 0 2 3 1 1 1 2 2 4 2 3 3 1 0 nan nan nan nan nan 1 1 1 3 5 5 4 3 3 4 7 7 7 4 3 2 2 1 0 nan 0 0 0 nan nan 3 8 nan nan nan 0 1 1 nan nan nan nan nan nan 1 2 2 1 3 2 2 3 6 6 11 18 18 18 20
4 2 0 nan nan 0 0 0 1 1 2 2 3 3 3 2 1 1 1 2 2 2 1 0 0 1 0 nan nan nan nan nan nan nan nan nan nan nan nan 0 0 2 3 5 5 3 2 3 3 3 1 0 nan nan nan nan nan nan 1 0 0 4 4 1 1 nan nan nan nan nan 2 nan nan nan 1 1 0 0 4 5 5 15 19 10 10 11
3 1 0 0 0 1 1 1 3 3 2 2 3 3 3 1 1 1 4 3 3 2 1 1 1 1 1 nan nan nan nan nan nan nan nan nan nan nan nan nan nan nan nan 0 0 1 2 6 6 2 1 0 nan nan nan nan nan nan nan 4 4 8 2 nan nan nan nan nan nan nan nan nan nan nan nan 1 0 0 2 12 12 27 24 6 6 6
3 0 1 2 2 1 2 2 1 1 1 2 3 3 2 1 4 4 7 2 2 2 0 nan nan 0 0 nan nan nan nan nan nan nan nan 0 nan nan nan nan nan nan nan nan nan nan nan 1 1 1 0 nan nan nan nan nan nan nan nan 4 4 6 2 0 0 nan nan nan nan nan nan nan nan nan nan nan nan nan 0 1 1 0 8 3 3 1
0 1 3 4 4 3 1 0 0 0 1 3 3 3 2 3 8 8 3 1 1 0 nan nan nan 0 nan nan nan nan nan nan nan nan nan nan 12 12 nan nan nan nan nan nan nan nan 0 0 0 0 nan 0 0 0 nan nan nan nan 4 6 6 2 nan 1 1 0 0 nan nan nan nan nan nan nan nan nan nan nan nan nan nan nan nan nan nan nan
2 3 4 3 3 2 3 0 0 0 1 3 3 3 3 3 3 3 5 2 2 nan nan nan nan nan nan nan nan nan nan nan nan nan nan nan nan nan nan nan nan nan nan nan nan nan nan nan nan nan 0 1 nan nan nan nan nan nan 0 1 1 nan nan nan nan nan nan nan nan nan nan nan nan nan nan nan nan nan nan nan nan nan nan nan nan nan
1 3 2 2 2 1 0 0 1 1 2 3 3 3 3 3 3 3 2 1 1 0 0 nan nan nan nan nan nan nan nan nan nan nan nan nan nan nan nan nan nan nan nan nan nan nan nan nan nan nan nan 0 nan nan nan nan nan nan nan nan nan nan nan nan nan nan nan 0 0 0 0 1 nan nan nan nan nan nan nan nan nan nan nan nan nan nan
3 4 3 2 2 1 0 0 0 0 1 1 2 2 2 3 5 5 3 0 0 0 2 nan nan nan nan nan nan nan nan nan nan nan nan nan nan nan nan nan nan nan nan nan nan nan nan nan nan nan nan nan nan nan nan nan nan nan nan nan nan nan nan nan nan nan nan nan nan nan 1 2 1 1 nan nan nan nan nan nan nan nan nan nan nan nan
4 3 3 3 3 1 1 0 1 1 2 1 2 2 3 9 21 21 4 0 0 nan nan nan nan nan nan nan nan nan 0 nan nan nan nan nan nan nan nan nan nan nan nan nan nan nan nan nan nan nan nan nan nan nan nan nan nan nan nan nan nan nan nan nan nan nan nan nan nan nan 0 1 1 1 0 nan nan nan nan nan nan nan nan nan nan nan
2 1 4 3 3 1 2 3 2 2 2 3 3 3 3 3 3 3 1 0 0 nan nan nan nan nan nan nan nan nan nan nan nan nan nan nan nan nan nan nan nan nan nan nan nan nan nan nan nan nan nan nan nan nan nan nan nan nan nan nan nan nan nan nan nan nan nan nan nan nan nan 0 1 1 0 0 nan nan nan nan nan nan nan nan nan nan
3 3 3 3 3 3 3 3 3 3 2 3 6 6 5 3 2 2 0 0 0 nan nan nan nan nan nan nan nan nan 0 nan nan nan nan nan nan nan nan nan nan nan nan nan nan nan nan nan nan nan nan 3 nan nan nan nan nan nan nan nan nan nan nan nan nan nan nan nan nan nan nan nan 0 0 1 0 1 1 nan nan nan nan nan nan nan nan
CIN
nan nan nan nan nan nan nan nan nan nan nan nan nan nan nan nan nan nan nan nan nan nan nan nan nan nan nan -0 -0 -0 -0 -0 -0 -0 -0 -0 -0 -0 -0 -0 -0 -0 -0 -0 -0 -0 -0 -0 -0 -0 -0 -0 -0 -0 -0 -0 -0 -0 -0 -0 -0 -0 -0 -0 -0 -0 -0 -0 -0 -0 -0 -0 -0 -0 -0 -0 -0 -0 -0 -0 -0 -0 -0 -0 -0 -0
nan nan nan nan nan nan nan nan nan nan nan nan nan nan nan nan nan nan nan nan nan nan nan nan nan nan nan nan -0 -0 -0 -0 -0 -0 -0 -0 -0 -0 -0 -0 -0 -0 -0 -0 -0 -0 -0 -0 -0 -0 -0 -0 -0 -0 -0 -0 -0 -0 -0 -0 -0 -0 -0 -0 -0 -0 -0 -0 -0 -0 -0 -0 -0 -0 -0 -0 -0 -0 -0 -0 -0 -0 -0 -0 -0 -0
nan nan nan nan nan nan nan nan nan nan nan nan nan nan nan nan nan nan nan nan nan nan nan nan nan nan nan nan -0 -0 -0 -0 -0 -0 -0 -0 -0 -0 -0 -0 -0 -0 -0 -0 -0 -0 -0 -0 -0 -0 -0 -0 -0 -0 -0 -0 -0 -0 -0 -0 -0 -0 -0 -0 -0 -0 -0 -0 -0 -0 -0 -0 -0 -0 -0 -0 -0 -0 -0 -0 -0 -0 -0 -0 -0 -0
nan nan nan nan nan nan nan nan nan nan nan nan nan nan nan nan nan nan nan nan nan nan nan nan nan nan nan nan -1 -1 -0 -0 -0 -0 -0 -0 -0 -0 -0 -0 -0 -0 -0 -0 -0 -0 -0 -0 -0 -0 -0 -0 -0 -0 -0 -0 -0 -0 -0 -0 -0 -0 -0 -0 -0 -0 -0 -0 -0 -0 -0 -0 -0 -0 -0 -0 -0 -0 -0 -0 -0 -0 -0 -0 -0 -0
nan nan nan nan nan nan nan nan nan nan nan nan nan nan nan nan nan nan nan nan nan nan nan nan nan nan nan nan nan nan -0 -0 -0 -0 -0 -0 -0 -0 -0 -0 -0 -0 -0 -0 -0 -0 -0 -0 -0 -0 -0 -0 -0 -0 -0 -0 -0 -0 -0 -0 -0 -0 -0 -0 -0 -0 -0 -0 -0 -0 -0 -0 -0 -0 -0 -0 -0 -0 -0 -0 -0 -0 -0 -0 -0 -0
nan nan nan nan nan nan nan nan nan nan nan nan nan nan nan nan nan nan nan nan nan nan nan nan nan nan nan nan nan nan -1 -0 -0 -0 -0 -0 -0 -0 -0 -0 -0 -0 -0 -0 -0 -0 -0 -0 -0 -0 -0 -0 -0 -0 -0 -0 -0 -0 -0 -0 -0 -0 -0 -0 -0 -0 -0 -0 -0 -0 -0 -0 -0 -0 -0 -0 -0 -0 -0 -0 -0 -0 -0 -0 -0 -0
nan nan nan nan nan nan nan nan nan nan nan nan nan nan nan nan nan nan nan nan nan nan nan nan nan nan nan nan nan nan -4 -0 -0 -0 -0 -0 -0 -0 -0 -0 -0 -0 -0 -0 -0 -0 -0 -0 -0 -0 -0 -0 -0 -0 -0 -0 -0 -0 -0 -0 -0 -0 -0 -0 -0 -0 -0 -0 -0 -0 -0 -0 -0 -0 -0 -0 -0 -0 -0 -0 -0 -0 -0 -0 -0 -0
nan nan nan nan nan nan nan nan nan nan nan nan nan nan nan nan nan nan nan nan nan nan nan nan nan nan nan nan nan nan nan nan nan nan nan nan -0 -0 -0 -0 -0 -0 -0 -0 -0 -0 -0 -0 -0 -0 -0 -0 -0 -0 -0 -0 -0 -0 -0 -0 -0 -0 -0 -0 -0 -0 -0 -0 -0 -0 -0 -0 -0 -0 -0 -0 -0 -0 -0 -0 -0 -0 -0 -0 -0 -0
nan nan nan nan nan nan nan nan nan nan nan nan nan nan nan nan nan nan nan nan nan nan nan nan nan nan nan nan nan nan nan nan nan nan nan nan nan nan -10 -0 -0 -0 -0 -0 -0 -0 -0 -0 -0 -0 -0 -0 -0 -0 -0 -0 -0 -0 -0 -0 -0 -0 -0 -0 -0 -0 -0 -0 -0 -0 -0 -0 -0 -0 -0 -0 -0 -0 -0 -0 -0 -0 -0 -0 -0 -0
nan nan nan nan nan nan nan nan nan nan nan nan nan nan nan nan nan nan nan nan nan nan nan nan nan nan nan nan nan nan nan nan -1 -1 -0 -5 -0 -0 -2 -0 -0 -0 -0 -0 -0 -0 -0 -0 -0 -0 -0 -0 -0 -0 -0 -0 -0 -0 -0 -0 -0 -0 -0 -0 -0 -0 -0 -0 -0 -0 -0 -0 -0 -0 -0 -0 -0 -0 -0 -0 -0 -0 -0 -0 -0 -0
nan nan nan nan nan nan nan nan nan nan nan nan nan nan nan nan nan nan nan nan nan nan nan nan nan nan nan nan nan nan nan nan nan nan nan -3 -0 -0 -0 -0 -0 -0 -0 -0 -0 -0 -0 -0 -0 -0 -0 -0 -0 -0 -0 -0 -0 -0 -0 -0 -0 -0 -0 -0 -0 -0 -0 -0 -0 -0 -0 -0 -0 -0 -0 -0 -0 -0 -0 -0 -0 -0 -0 -0 -0 -0
nan nan nan nan nan nan nan nan nan nan nan nan nan nan nan nan nan nan nan nan nan nan nan nan nan nan nan nan nan nan nan nan nan nan nan nan nan nan nan nan nan -7 -1 -0 -0 -0 -0 -0 -0 -0 -0 -0 -0 -0 -0 -0 -0 -0 -0 -0 -0 -0 -0 -0 -0 -0 -0 -0 -0 -0 -0 -0 -0 -0 -0 -0 -0 -0 -0 -0 -0 -0 -0 -0 -0 -0
nan nan nan nan nan nan nan nan nan nan nan nan nan nan nan nan nan nan nan nan nan nan nan nan nan nan nan nan nan nan nan nan nan nan nan nan nan nan nan nan nan nan nan nan nan nan -0 -0 -0 -0 -0 -0 -0 -0 -0 -0 -0 -0 -0 -0 -0 -0 -0 -0 -0 -0 -0 -0 -0 -0 -0 -0 -0 -0 -0 -0 -0 -0 -0 -0 -0 -0 -0 -0 -0 -0
nan nan nan nan nan nan nan nan nan nan nan nan nan nan nan nan nan nan nan nan nan nan nan nan nan nan nan nan nan nan nan nan nan nan nan nan nan nan nan nan nan nan nan nan nan nan -12 -4 -4 -10 -0 -0 -0 -0 -0 -0 -0 -0 -0 -0 -0 -0 -0 -0 -0 -0 -0 -0 -0 -0 -0 -0 -0 -0 -0 -0 -0 -0 -0 -0 -0 -0 -0 -0 -0 -0
nan nan nan nan nan nan nan nan nan nan nan nan nan nan nan nan nan nan nan nan nan nan nan nan nan nan nan nan nan nan nan nan nan nan nan nan nan nan nan nan nan -41 nan nan nan nan -20 -25 -25 -48 -39 -20 -11 -11 -0 -0 -0 -0 -0 -0 -0 -0 -0 -0 -0 -0 -0 -0 -0 -0 -0 -0 -0 -0 -0 -0 -0 -0 -0 -0 -0 -0 -0 -0 -0 -0
nan nan nan nan nan nan nan nan nan nan nan nan nan nan nan nan nan nan nan nan nan nan nan nan nan nan nan nan nan nan nan nan nan nan nan nan nan nan nan nan nan nan -28 -26 -26 -35 -48 -48 -48 -47 -46 -20 -0 -0 -0 -0 -0 -0 -0 -0 -0 -0 -0 -0 -0 -0 -0 -0 -0 -0 -0 -0 -0 -0 -0 -0 -0 -0 -0 -0 -0 -0 -0 -0 -0 -0
nan nan nan nan nan nan nan nan nan nan nan nan nan nan nan nan nan nan nan nan nan nan nan nan nan nan nan nan nan nan nan nan nan nan nan nan nan nan nan nan nan nan -28 -29 -29 nan nan -41 -41 -43 -36 -8 -0 -0 -0 -0 -0 -0 -0 -0 -0 -0 -0 -0 -0 -0 -0 -0 -0 -0 -0 -0 -0 -0 -0 -0 -0 -0 -0 -0 -0 -0 -0 -0 -0 -0
nan nan nan nan nan nan nan nan nan nan nan nan nan nan nan nan nan nan nan nan nan nan nan nan nan nan nan nan nan nan nan nan nan nan nan nan nan nan nan nan nan nan nan nan nan nan -31 -37 -37 -49 -21 -0 -0 -0 -0 -0 -0 -0 -0 -0 -0 -0 -0 -0 -0 -0 -0 -0 -0 -0 -0 -0 -0 -0 -0 -0 -0 -0 -0 -0 -0 -0 -0 -0 -0 -0
nan nan nan nan nan nan nan nan nan nan nan nan nan nan nan nan nan nan nan nan nan nan nan nan nan nan nan nan nan nan nan nan nan nan nan nan nan nan nan nan nan nan nan nan nan -29 -33 -43 -43 -19 -0 -0 -0 -0 -0 -0 -0 -0 -0 -0 -0 -0 -0 -0 -0 -0 -0 -0 -0 -0 -0 -0 -0 -0 -0 -0 -0 -0 -0 -0 -0 -0 -0 -0 -0 -0
nan nan nan nan nan nan nan nan nan nan nan nan nan nan nan nan nan nan nan nan nan nan nan nan nan nan nan nan nan nan nan nan nan nan nan nan nan nan nan nan nan nan nan nan nan nan nan nan nan -44 -7 -0 -0 -0 -0 -0 -0 -0 -0 -0 -0 -0 -0 -0 -0 -0 -0 -0 -0 -0 -0 -0 -0 -0 -0 -0 -0 -0 -0 -0 -0 -0 -0 -0 -0 -0
nan nan nan nan nan nan nan nan nan nan nan -12 nan nan nan nan nan nan nan nan nan nan nan nan nan nan nan nan nan nan nan nan nan nan -11 -13 nan nan nan nan nan nan nan nan nan nan nan nan nan nan -25 -1 -0 -0 -0 -0 -0 -0 -0 -0 -0 -0 -0 -0 -0 -0 -0 -0 -0 -0 -0 -0 -0 -0 -0 -0 -0 -0 -0 -0 -0 -0 -0 -0 -0 -0
nan nan nan nan nan nan nan nan nan nan -8 -8 nan nan nan nan nan nan nan nan nan nan nan nan nan nan nan nan nan nan nan nan -7 -7 -7 -6 -12 -12 nan nan nan nan nan nan nan nan nan nan nan nan -16 -0 -0 -0 -0 -0 -0 -0 -0 -0 -0 -0 -0 -0 -0 -0 -0 -0 -0 -0 -0 -0 -0 -0 -0 -0 -0 -0 -0 -0 -0 -0 -0 -0 -0 -0
nan nan nan nan nan nan nan nan nan nan nan nan nan nan nan nan nan nan nan nan nan nan nan nan nan nan -15 -14 -24 -24 nan nan -17 -17 -8 -3 -9 -9 nan nan nan nan nan nan nan nan nan nan nan nan -17 -0 -0 -0 -0 -0 -0 -0 -0 -0 -0 -0 -0 -0 -0 -0 -0 -0 -0 -0 -0 -0 -0 -0 -0 -0 -0 -0 -0 -0 -0 -0 -0 -0 -0 -0
nan nan nan nan nan nan nan nan nan nan -15 -13 -20 -20 nan nan -20 -20 -15 -14 -14 nan nan nan nan nan nan nan nan nan nan nan nan nan nan nan nan nan nan nan nan nan nan nan nan nan nan nan nan nan -35 -0 -0 -0 -0 -0 -0 -0 -0 -0 -0 -0 -0 -0 -0 -0 -0 -0 -0 -0 -0 -0 -0 -0 -0 -0 -0 -0 -0 -0 -0 -0 -0 -0 -0 -0
nan nan nan nan nan -3 -4 -16 -11 -11 -18 -18 -14 -14 -9 -4 -1 -1 -2 nan nan nan nan nan nan nan nan -5 nan nan nan nan nan nan nan nan nan nan nan nan nan nan nan nan nan nan nan nan nan nan nan -13 -0 -0 -0 -0 -0 -0 -0 -0 -0 -0 -0 -0 -0 -0 -0 -0 -0 -0 -0 -0 -0 -0 -0 -0 -0 -0 -0 -0 -0 -0 -0 -0 -0 -0
-0 -0 -1 -2 -2 -0 -0 -0 -0 -0 -2 -10 -5 -5 -5 -3 nan nan nan nan nan nan nan nan nan nan nan nan nan nan nan nan nan nan nan nan nan nan nan nan nan nan nan nan nan nan nan nan nan nan nan nan -0 -0 -0 -0 -0 -0 -0 -0 -0 -0 -0 -0 -0 -0 -0 -0 -0 -0 -0 -0 -0 -0 -0 -0 -0 -0 -0 -0 -0 -0 -0 -0 -0 -0
-0 -0 -0 -0 -0 -0 -0 -0 -0 -0 -0 -0 -0 -0 nan nan nan nan nan nan nan nan nan nan nan nan nan nan nan nan nan nan nan nan nan nan nan nan nan nan nan nan nan nan nan nan -19 nan nan nan nan nan -17 -17 -0 -0 -0 -0 -0 -0 -0 -0 -0 -0 -0 -0 -0 -0 -0 -0 -0 -0 -0 -0 -0 -0 -0 -0 -0 -0 -0 -0 -0 -0 -0 -0
-0 -0 -0 -0 -0 -0 -0 -0 -0 -0 -0 -0 -0 -0 -0 nan nan nan nan nan nan nan nan nan nan nan nan nan nan nan nan -15 nan nan nan nan nan nan nan nan nan nan -15 -18 -18 -18 -1 -8 -8 -19 nan nan nan nan -12 -0 -0 -0 -0 -0 -0 -0 -0 -0 -0 -0 -0 -0 -0 -0 -0 -0 -0 -0 -0 -0 -0 -0 -0 -0 -0 -0 -0 -4 -4 -15
-0 -0 -0 -0 -0 -0 -0 -0 -0 -0 -0 -0 -0 -0 -0 nan nan nan nan nan nan nan nan nan nan nan nan nan nan nan nan -10 nan nan nan nan nan nan nan nan nan -22 -18 -20 -20 -18 -14 -20 -20 nan nan nan nan nan nan -6 -6 -1 -0 -0 -0 -0 -0 -0 -0 -0 -0 -0 -0 -0 -0 -0 -0 -0 -0 -0 -0 -0 -0 -0 -0 -0 -3 -10 -10 -19
-15 -1 -0 -0 -0 -0 -0 -0 -0 -0 -0 -0 -0 -0 -0 -6 nan nan nan nan nan nan nan -1 -1 nan nan nan -9 -9 -10 nan nan nan nan nan -10 -10 nan -19 -19 -16 -19 -16 -16 -15 nan nan nan nan nan nan nan nan nan nan nan -56 -25 -2 -2 -0 -0 -0 -0 -0 -0 -0 -0 -0 -0 -0 -0 -0 -0 -0 -0 -0 -0 -0 -0 -1 -10 -17 -17 -19
-25 -16 -19 nan nan nan nan nan nan nan -0 -0 -0 -0 -0 nan nan nan nan nan nan nan nan nan nan nan nan -5 -5 -5 nan nan nan nan nan nan -7 -7 -13 -14 -14 -18 -22 -14 -14 -12 -15 nan nan nan nan nan nan nan nan nan nan nan nan -52 -52 -25 -4 -1 -1 -0 -0 -0 -0 -0 -0 -0 -0 -0 -0 -0 -0 -0 -0 -0 -0 -0 -14 -19 -19 -19
nan nan nan nan nan nan nan nan nan nan nan nan nan nan nan -2 nan nan nan nan nan nan nan nan nan -4 -5 -8 -3 -3 -5 -15 -3 -3 -26 -11 -5 -5 -9 -8 -8 -8 -16 -17 -17 -13 -14 -9 -9 -17 -26 -26 -36 -36 -32 -35 -35 nan nan nan nan nan -24 -1 -1 -0 -0 -0 -0 -0 -0 -0 -0 -0 -0 -0 -0 -0 -0 -0 -0 -0 -5 -15 -15 -13
nan nan nan nan nan nan nan nan nan nan nan nan nan nan nan nan -0 -0 -6 -10 -10 -11 -9 -7 -7 -4 -4 -5 -5 -5 -7 -13 -0 -0 -9 -12 -5 -5 -9 -8 -8 -10 -15 -16 -16 -16 -15 -11 -11 -10 -11 -15 -18 -18 -25 -27 -27 -40 -68 nan nan nan nan nan nan -1 -0 -0 -0 -0 -0 -0 -0 -0 -0 -0 -0 -0 -0 -0 -0 -0 -0 -11 -11 -9
nan nan nan nan nan nan nan nan nan nan nan nan nan nan nan -10 -7 -7 -4 -7 -7 -9 -9 -7 -7 -4 -4 -4 -3 -3 -6 -10 -0 -0 -8 -9 -8 -8 -8 -9 -9 -9 -11 -10 -10 -11 -14 -9 -9 -6 -5 -11 -19 -19 -23 -30 -30 -39 -70 -41 -41 nan nan -4 -4 -2 -2 -1 -3 -3 -0 -0 -0 -0 -0 -0 -0 -0 -0 -0 -0 -0 -0 -2 -2 -4
nan nan nan nan nan nan nan nan nan nan nan nan nan nan -7 -8 -11 -11 -9 -9 -9 -10 nan nan nan nan -7 -6 -3 -3 -5 nan -1 -1 -6 -3 -9 -9 -6 -6 -6 -7 -7 -6 -6 -12 -8 nan nan -1 -3 -4 nan nan nan -27 -27 -28 -32 -13 -13 -8 -7 -6 -6 -3 -2 -2 -3 -3 -5 -5 -3 -3 -0 -0 -0 -0 -0 -0 -0 -0 -0 -0 -0 -0
nan nan nan nan nan nan nan nan nan nan -8 -8 -10 -10 -10 -12 -13 -13 -15 -14 -14 -6 -3 -8 -8 -9 nan nan nan nan -6 -11 -4 -4 -1 -1 -7 -7 -4 -3 -3 -5 -4 -7 -7 -16 nan nan nan -0 -0 -1 -6 -6 nan -24 -24 -29 -21 -17 -17 -15 -12 -9 -9 -6 -6 -3 -3 -3 -5 -5 -3 -3 -2 -0 -0 -0 -0 -0 -0 -0 -0 -0 -0 -0
nan nan nan nan nan nan nan nan nan nan -6 -8 nan nan -12 nan nan nan nan nan nan nan nan -2 -2 -4 -2 -12 -9 -9 -9 -7 -5 -5 -1 -2 -2 -2 -1 -2 -2 -2 -8 -15 -15 nan nan -2 -2 -2 -2 -4 nan nan -9 -20 -20 nan nan nan nan nan nan nan nan nan -14 -6 -6 -6 -5 -4 -2 -2 -1 -0 -0 -0 -0 -0 -0 -0 -0 -0 -0 -0
nan nan nan nan nan nan nan nan nan nan -5 nan nan nan nan nan nan nan nan nan nan nan nan nan nan -11 -1 -0 -2 -2 -3 -3 -4 -4 -6 -6 -4 -4 -1 -2 -2 -4 -9 -11 -11 -5 -4 -4 -4 -3 nan nan -2 -2 -6 nan nan nan nan nan nan nan nan nan nan nan nan -13 -5 -5 -4 -7 -11 -11 -6 -3 -3 -3 -2 -2 -2 -0 -0 -0 -0 -0
nan nan nan nan nan nan nan nan nan nan nan nan -7 -7 nan nan nan nan nan nan nan nan nan -11 -11 -8 -4 -3 -1 -1 -3 -10 -14 -14 -12 -9 -4 -4 -2 -1 -1 -5 -6 -6 -6 -5 -6 nan nan nan nan nan nan nan nan nan nan nan nan nan nan nan nan nan nan nan nan nan -8 -8 -8 nan -15 -15 -7 -5 -3 -3 -2 -3 -3 -1 -1 -1 -1 -0
nan nan nan -2 -2 nan nan nan nan nan nan -8 -5 -5 -7 -5 nan nan nan -13 -13 -9 -12 -11 -11 -14 -14 -10 -9 -9 -10 -15 -11 -11 -15 -14 -9 -9 -5 -3 -3 -3 -5 -6 -6 -4 -5 -4 -4 -3 -2 nan nan nan nan nan nan nan nan nan nan nan nan nan nan nan nan nan nan nan nan nan -10 -10 -7 -6 -4 -4 -4 -5 -5 -4 -2 -4 -4 -2
-1 nan nan -4 -4 -4 -4 -6 nan nan nan -7 -8 -8 -5 -3 -5 -5 -6 -8 -8 -8 -13 -15 -15 -18 -21 nan nan nan nan nan -22 -22 -26 -24 -21 -21 -16 -9 -9 -6 -4 -3 -3 -3 -2 -2 -2 -3 -5 nan -3 -3 -4 nan nan -2 -0 nan nan nan -14 -13 -13 nan nan nan nan nan nan -6 -5 -5 -8 -6 -10 -10 -9 -8 -8 -5 -3 -5 -5 -3
-0 -0 -4 nan nan -7 -9 -10 -6 -6 -5 -6 -4 -4 -4 -4 -5 -5 -5 -6 -6 -9 -12 -13 -13 -13 -14 nan nan nan nan nan nan nan nan nan nan nan nan -17 -17 -8 -5 -2 -2 -2 -2 -1 -1 -1 -3 -4 nan nan nan nan nan nan -1 -4 -4 -4 -6 -9 -9 nan nan nan nan nan -4 nan nan nan -5 -6 -10 -10 -7 -7 -7 -1 -1 -5 -5 -5
-0 -1 -5 -7 -7 -8 -6 -5 -3 -3 -3 -5 -5 -5 -5 -6 -4 -4 -2 -4 -4 -6 -7 -8 -8 -8 -6 nan nan nan nan nan nan nan nan nan nan nan nan nan nan nan nan -2 -2 -1 -2 -0 -0 -1 -3 -4 nan nan nan nan nan nan nan -2 -2 -1 -3 nan nan nan nan nan nan nan nan nan nan nan nan -4 -7 -7 -7 -1 -1 -0 -0 -5 -5 -6
-0 -2 -5 -7 -7 -6 -3 -3 -4 -4 -4 -4 -3 -3 -6 -8 -3 -3 -2 -5 -5 -6 -8 nan nan -10 -6 nan nan nan nan nan nan nan nan -30 nan nan nan nan nan nan nan nan nan nan nan -1 -1 -2 -4 nan nan nan nan nan nan nan nan -4 -4 -2 -2 -5 -5 nan nan nan nan nan nan nan nan nan nan nan nan nan -6 -5 -5 -8 -1 -5 -5 -6
-3 -3 -3 -2 -2 -2 -4 -5 -5 -5 -5 -3 -4 -4 -6 -6 -2 -2 -3 -7 -7 -7 nan nan nan -7 nan nan nan nan nan nan nan nan nan nan -4 -4 nan nan nan nan nan nan nan nan -2 -1 -1 -2 nan -3 -2 -2 nan nan nan nan -3 -2 -2 -2 nan -3 -3 -5 -4 nan nan nan nan nan nan nan nan nan nan nan nan nan nan nan nan nan nan nan
-2 -2 -2 -3 -3 -4 -0 -2 -4 -4 -4 -3 -4 -4 -6 -8 -7 -7 -3 -6 -6 nan nan nan nan nan nan nan nan nan nan nan nan nan nan nan nan nan nan nan nan nan nan nan nan nan nan nan nan nan -2 -1 nan nan nan nan nan nan -7 -3 -3 nan nan nan nan nan nan nan nan nan nan nan nan nan nan nan nan nan nan nan nan nan nan nan nan nan
-3 -3 -4 -4 -4 -3 -4 -4 -3 -3 -3 -2 -3 -3 -5 -8 -8 -8 -7 -8 -8 -9 -8 nan nan nan nan nan nan nan nan nan nan nan nan nan nan nan nan nan nan nan nan nan nan nan nan nan nan nan nan -1 nan nan nan nan nan nan nan nan nan nan nan nan nan nan nan -4 -5 -5 -9 -6 nan nan nan nan nan nan nan nan nan nan nan nan nan nan
-1 -1 -3 -3 -3 -3 -4 -3 -4 -4 -3 -3 -3 -3 -4 -7 -6 -6 -7 -12 -12 -8 -2 nan nan nan nan nan nan nan nan nan nan nan nan nan nan nan nan nan nan nan nan nan nan nan nan nan nan nan nan nan nan nan nan nan nan nan nan nan nan nan nan nan nan nan nan nan nan nan -6 -2 -2 -2 nan nan nan nan nan nan nan nan nan nan nan nan
-2 -2 -2 -2 -2 -3 -2 -3 -4 -4 -3 -3 -3 -3 -4 -1 -0 -0 -4 -13 -13 nan nan nan nan nan nan nan nan nan -2 nan nan nan nan nan nan nan nan nan nan nan nan nan nan nan nan nan nan nan nan nan nan nan nan nan nan nan nan nan nan nan nan nan nan nan nan nan nan nan -7 -2 -2 -2 -3 nan nan nan nan nan nan nan nan nan nan nan
-4 -4 -1 -2 -2 -3 -2 -2 -2 -2 -2 -1 -2 -2 -4 -5 -8 -8 -9 -8 -8 nan nan nan nan nan nan nan nan nan nan nan nan nan nan nan nan nan nan nan nan nan nan nan nan nan nan nan nan nan nan nan nan nan nan nan nan nan nan nan nan nan nan nan nan nan nan nan nan nan nan -6 -4 -4 -6 -4 nan nan nan nan nan nan nan nan nan nan
-1 -3 -2 -3 -3 -1 -2 -2 -1 -1 -1 -1 -1 -1 -3 -5 -7 -7 -9 -9 -9 nan nan nan nan nan nan nan nan nan -3 nan nan nan nan nan nan nan nan nan nan nan nan nan nan nan nan nan nan nan nan -0 nan nan nan nan nan nan nan nan nan nan nan nan nan nan nan nan nan nan nan nan -5 -5 -3 -3 -3 -3 nan nan nan nan nan nan nan nan
Wind_Speed
6 7 7 8 8 7 8 9 10 11 11 10 10 10 10 11 11 12 14 14 14 13 13 14 14 16 18 22 25 28 29 30 31 32 33 33 33 34 34 34 34 34 34 35 35 35 35 35 36 36 36 36 36 36 36 36 36 36 36 36 36 36 36 36 36 36 35 35 35 35 35 34 34 34 34 34 34 34 34 34 33 33 33 33 33 33
7 7 7 8 8 8 9 10 10 10 11 11 10 10 11 12 11 11 11 12 13 13 12 13 14 15 17 19 23 27 28 30 31 32 32 33 33 34 34 34 34 34 34 35 35 35 36 36 36 36 36 36 36 36 36 36 36 36 36 36 36 36 36 36 36 36 36 35 35 35 35 35 34 34 34 34 34 34 34 34 34 34 34 34 34 34
7 7 7 7 7 8 9 10 10 9 10 11 11 11 12 13 13 11 10 11 11 11 11 12 13 14 16 17 21 25 28 30 31 32 32 33 33 34 34 34 34 34 34 35 35 36 36 36 36 36 36 36 37 36 36 36 36 36 36 36 36 36 36 36 36 36 36 36 36 35 35 35 35 35 35 35 35 35 35 35 35 35 35 34 34 35
7 7 8 6 7 8 9 9 10 10 9 11 12 13 13 13 12 11 11 11 11 11 11 12 13 13 14 15 18 22 27 29 31 32 32 33 33 34 34 34 34 34 35 35 36 36 36 36 37 37 37 37 37 37 37 37 36 36 36 36 36 36 36 36 36 36 36 36 36 36 36 36 36 36 36 35 35 35 35 35 35 35 35 35 35 35
7 7 8 6 7 8 9 9 9 9 9 10 11 12 12 11 11 11 11 11 12 11 11 11 12 12 12 12 16 20 26 29 31 32 33 33 34 34 34 34 35 35 35 36 36 36 36 37 37 37 37 37 37 37 37 37 37 36 36 36 36 36 36 36 36 36 36 36 36 36 36 36 36 36 36 36 36 36 36 36 36 36 36 36 36 35
7 7 7 6 7 8 8 8 9 9 9 10 10 10 10 10 10 10 11 11 11 11 11 10 11 12 12 13 16 21 25 28 31 32 33 33 34 34 35 35 35 36 36 36 36 37 37 37 37 37 37 37 37 37 37 37 37 37 36 36 36 36 36 36 35 35 35 35 36 36 36 36 36 36 36 36 36 36 36 36 36 36 36 36 36 36
8 7 7 7 7 7 8 9 9 9 9 10 10 10 10 9 10 10 10 10 10 10 11 11 11 12 12 13 16 20 23 26 28 30 31 33 33 34 34 35 35 36 36 36 37 37 37 37 37 37 37 37 37 37 37 37 37 37 37 36 36 36 36 36 36 36 35 35 35 35 36 36 36 36 36 36 36 36 36 36 36 36 37 37 37 37
11 10 8 8 8 8 8 9 8 8 9 9 9 9 10 9 9 10 10 10 10 9 9 10 11 11 11 11 13 15 16 18 20 22 24 26 28 29 31 33 34 35 36 36 36 36 37 37 37 37 37 37 37 37 37 37 37 37 37 37 37 36 36 36 36 36 36 36 36 36 35 36 35 35 35 35 35 35 36 36 36 36 36 37 37 37
12 12 11 9 9 9 10 9 8 8 8 9 9 9 10 10 10 10 10 10 9 8 8 9 10 10 9 9 9 11 13 14 15 15 17 17 19 22 25 28 30 32 34 35 35 36 36 36 36 36 36 37 37 37 37 37 37 37 37 37 37 37 37 37 37 36 36 36 36 36 36 36 36 36 36 36 36 35 36 36 36 36 36 37 37 37
11 12 11 9 8 8 10 10 9 8 8 9 9 9 9 11 11 11 11 10 9 7 7 9 10 10 10 8 8 8 11 13 16 19 20 20 21 23 24 25 26 28 31 33 34 35 35 36 36 36 36 37 37 37 37 37 37 37 37 37 37 37 37 37 37 37 37 37 37 37 37 36 36 36 36 36 36 36 36 36 36 36 36 36 37 37
10 10 10 9 9 8 8 9 9 8 8 9 9 9 8 9 10 11 13 12 11 9 8 9 9 9 10 9 8 7 8 10 12 15 19 21 24 26 26 26 26 27 30 31 33 34 34 35 36 36 36 37 37 37 37 37 37 37 37 38 38 38 38 38 38 38 38 38 37 37 37 37 37 37 36 36 36 36 36 36 36 36 36 36 37 37
9 9 8 9 9 8 8 8 8 8 8 8 9 9 9 7 7 8 12 13 13 12 11 10 9 9 9 9 9 8 8 9 10 11 11 13 15 17 18 19 20 22 24 25 27 29 31 32 33 34 34 35 35 36 36 36 36 36 37 37 38 38 38 38 38 38 38 38 38 38 38 38 37 37 37 37 37 37 37 37 37 37 37 37 37 37
9 8 8 9 9 9 9 9 8 7 8 8 9 10 9 8 7 7 9 11 12 12 12 12 11 10 9 9 8 8 9 11 11 11 10 10 9 10 10 11 11 12 13 15 15 17 22 26 28 29 31 31 32 33 34 34 34 35 36 36 37 37 38 38 38 38 38 39 38 38 38 38 38 38 38 38 38 38 38 38 37 37 37 37 37 37
9 9 9 9 10 9 9 9 9 9 9 9 9 10 10 9 9 9 10 11 12 12 12 13 13 12 10 9 8 8 9 10 10 11 11 10 8 8 8 9 10 10 9 10 10 12 15 17 19 21 25 27 28 30 30 31 33 34 34 35 36 36 37 37 38 38 38 38 38 38 38 38 38 38 39 39 39 38 38 38 38 38 38 37 37 37
9 9 10 10 10 9 9 9 10 10 10 9 10 10 10 10 10 10 11 12 12 12 12 13 13 12 10 8 7 7 8 7 8 9 11 10 8 7 7 9 10 10 9 10 11 12 14 14 13 14 16 20 22 24 26 27 30 32 33 34 35 35 36 36 37 37 38 38 38 38 38 38 38 38 39 39 39 39 39 38 38 38 38 38 38 37
9 9 10 11 10 10 9 9 9 10 10 10 10 10 11 11 10 9 10 11 11 11 11 12 13 12 10 7 6 6 7 7 7 8 12 11 10 8 8 9 10 11 10 11 12 12 12 12 13 14 15 18 22 25 28 29 30 32 33 34 35 35 36 36 37 37 37 38 38 38 38 38 38 38 38 39 39 39 39 38 38 38 38 38 38 37
9 9 10 10 11 11 10 9 9 10 10 10 10 10 10 10 9 8 8 10 10 9 10 11 12 12 10 8 6 5 6 7 8 9 12 13 12 10 8 9 11 12 12 12 12 12 12 13 13 14 14 19 24 27 30 31 32 33 34 35 35 36 36 36 37 37 38 38 38 38 38 38 38 38 38 38 38 38 38 38 38 38 38 38 37 37
9 9 10 10 11 10 10 10 9 9 10 10 10 10 10 10 9 9 8 8 9 10 11 10 10 10 10 10 8 6 7 8 9 10 13 14 12 10 8 9 11 13 13 13 12 12 12 12 12 12 15 22 26 29 31 33 34 34 35 36 36 36 37 37 37 37 38 38 38 38 39 39 39 39 39 39 39 39 39 39 38 38 38 38 37 37
10 10 10 10 10 10 10 10 9 9 9 9 10 11 11 11 10 10 10 10 10 11 11 11 11 10 10 11 11 9 9 9 10 11 13 14 13 11 9 10 12 13 13 12 12 11 11 11 13 16 20 24 27 30 31 33 33 34 35 35 36 36 37 37 37 37 38 38 38 38 39 39 39 39 39 39 39 39 39 39 39 39 39 38 38 38
11 11 10 10 10 11 11 11 10 10 10 11 11 11 12 12 12 11 11 11 10 10 10 11 12 12 11 12 12 12 10 10 11 12 13 15 14 12 10 11 12 13 13 12 11 10 10 10 12 15 20 23 26 29 30 31 32 33 33 34 35 35 36 36 37 37 37 38 38 38 39 39 39 39 39 39 40 40 40 40 39 39 39 39 39 38
13 13 12 10 10 10 10 10 11 12 13 13 12 11 11 11 11 11 10 10 11 11 10 11 11 11 10 11 12 12 10 10 11 12 12 12 12 10 8 10 11 12 13 12 11 10 11 11 11 12 15 21 25 27 29 30 31 31 32 33 33 34 35 36 36 36 37 37 37 38 38 38 39 39 39 40 40 40 40 40 40 40 40 40 39 39
13 13 13 13 12 11 12 12 14 15 15 14 13 11 10 10 11 11 11 10 11 11 12 11 11 11 11 12 13 12 11 9 10 11 10 12 12 10 8 9 10 12 12 12 11 10 11 11 11 12 16 22 26 28 30 30 31 31 31 32 33 34 34 35 35 36 36 36 37 37 38 38 38 39 39 39 40 40 40 40 40 40 40 40 40 40
14 14 15 14 13 13 13 13 13 13 13 12 11 10 8 8 9 10 10 11 11 11 11 11 11 12 12 12 12 12 11 10 10 9 9 12 13 11 8 9 10 12 13 12 11 11 11 11 12 13 17 23 26 28 30 31 31 31 32 32 33 33 34 34 35 35 35 36 36 37 37 38 38 38 39 39 39 39 40 40 40 40 40 40 40 40
15 15 14 13 12 12 11 11 11 10 10 9 9 9 8 9 10 10 9 10 10 11 11 12 12 13 12 12 12 11 10 9 8 7 8 10 11 11 8 8 11 13 13 12 11 11 12 12 12 12 14 20 24 27 29 30 31 31 31 32 33 33 34 34 34 35 35 35 35 36 36 37 37 38 38 38 39 39 39 39 39 40 40 40 40 40
13 13 12 12 12 13 14 14 14 14 13 12 11 11 12 13 12 12 10 10 10 11 12 13 13 13 12 11 11 10 8 8 7 7 7 8 10 10 8 8 10 12 13 11 11 11 12 12 12 12 12 16 21 25 28 29 30 30 31 31 32 33 34 34 34 35 35 35 35 35 36 36 37 37 38 38 38 38 38 38 39 39 39 39 39 40
15 15 16 19 22 26 29 30 29 28 26 21 16 13 12 12 11 11 11 11 11 11 12 12 13 12 10 9 9 9 7 7 6 6 7 7 9 10 9 8 9 12 13 12 11 11 12 12 13 12 12 13 17 22 25 27 29 30 30 31 32 32 33 34 34 34 35 35 35 35 36 36 36 37 37 37 38 38 38 38 38 38 38 39 38 38
24 26 29 31 32 33 34 33 33 32 31 27 23 18 15 12 11 12 12 11 10 10 11 12 12 12 11 10 9 8 8 7 7 6 7 8 10 10 9 8 9 11 13 12 11 11 13 13 13 12 12 12 14 17 22 25 27 29 30 30 31 32 32 33 34 34 35 35 35 35 35 36 36 37 37 37 37 37 37 37 37 37 37 36 34 32
26 28 29 30 30 30 30 29 28 27 27 27 27 25 20 14 11 12 12 10 9 9 10 11 12 12 11 10 9 9 9 8 8 7 8 8 8 9 9 8 9 10 11 11 11 11 13 13 13 13 12 12 12 14 18 22 24 26 27 29 29 30 31 32 33 34 34 35 35 35 35 36 36 36 37 37 37 37 37 37 37 36 35 30 25 21
23 24 26 26 26 25 25 24 23 23 24 26 26 24 19 12 11 11 11 10 9 10 11 11 11 11 11 11 11 10 9 8 8 8 7 7 7 8 8 9 9 9 10 10 10 10 10 10 10 10 11 12 12 11 12 15 17 19 21 24 26 27 29 30 32 33 34 35 35 35 36 36 36 36 36 36 37 37 37 37 37 34 28 23 20 18
15 17 17 17 17 18 17 17 17 19 21 23 24 22 16 11 10 10 10 9 9 10 11 12 11 11 11 11 11 10 8 7 7 7 6 6 7 8 8 9 10 9 8 8 9 9 8 8 7 8 9 11 11 10 9 9 10 11 12 16 19 22 25 28 30 32 33 34 35 35 36 36 36 36 36 36 36 37 37 38 36 30 21 18 16 16
12 12 11 11 11 11 12 12 12 14 16 18 18 16 13 10 9 9 9 9 9 10 11 11 11 11 10 10 9 8 7 6 6 7 6 6 7 8 9 9 10 9 7 7 7 8 9 7 6 7 9 10 10 9 8 8 8 8 8 10 12 15 21 24 27 28 30 32 33 34 35 35 35 35 36 36 36 36 36 37 35 29 20 16 16 16
11 10 10 10 10 9 9 9 9 10 10 11 11 11 11 10 10 9 9 9 9 9 10 11 11 11 10 10 9 9 7 7 8 9 8 7 7 7 8 9 9 9 7 7 7 8 9 8 7 6 8 9 9 9 9 9 8 7 8 8 9 12 17 19 22 23 24 26 29 30 32 32 33 34 34 35 35 35 36 37 35 30 21 17 16 16
11 10 9 10 9 9 9 8 8 8 8 8 8 9 9 10 10 10 9 9 8 9 9 10 11 11 11 11 11 10 9 9 10 11 10 8 7 7 7 9 10 10 9 8 8 8 8 8 8 7 8 8 8 8 9 9 8 7 7 7 8 9 12 13 15 16 16 19 21 23 26 28 29 30 32 32 33 34 35 36 35 32 25 19 16 16
10 10 10 10 9 9 8 8 8 8 8 8 9 9 8 8 9 9 9 8 8 8 8 9 10 10 11 11 11 11 10 10 11 13 12 9 7 7 9 10 10 11 10 9 9 8 8 8 8 8 8 8 8 8 9 9 8 7 5 5 6 7 8 9 9 10 12 13 13 14 17 19 21 23 26 27 29 30 32 33 34 33 30 23 19 16
10 10 10 9 9 8 8 8 8 8 8 8 8 9 8 8 8 8 8 8 8 8 9 9 9 10 11 11 11 11 11 11 12 13 12 10 9 8 9 9 10 10 10 10 9 7 7 9 10 10 10 9 8 7 7 7 7 6 5 5 5 6 6 7 7 8 10 10 10 10 11 11 13 15 18 21 23 25 28 29 31 32 32 29 25 20
9 10 9 8 8 8 8 8 8 8 8 8 8 7 8 8 8 8 8 8 9 10 10 10 10 10 10 11 11 12 12 12 12 13 13 11 9 8 8 8 9 10 10 9 9 8 9 10 11 12 12 11 9 7 6 6 6 6 5 6 7 7 7 8 8 8 9 10 10 10 10 10 11 11 13 18 21 23 25 27 28 29 31 31 29 26
9 9 9 8 8 8 8 8 8 8 8 8 7 7 8 8 8 8 9 9 10 10 11 12 12 12 12 12 12 12 12 12 12 13 13 11 10 9 9 9 10 10 9 9 9 10 10 11 11 11 10 9 8 7 7 6 6 6 6 7 7 8 9 9 9 9 9 10 11 11 11 11 11 11 12 17 19 21 23 25 26 26 28 29 30 30
9 9 8 8 7 7 8 8 8 7 8 8 8 8 9 9 9 10 10 10 11 12 12 11 11 12 15 15 15 14 14 14 14 15 15 13 12 11 10 10 10 9 8 9 10 10 11 11 11 11 10 9 9 9 9 8 7 7 7 7 7 8 8 9 9 9 9 10 11 12 13 12 12 11 12 13 13 13 15 15 17 20 23 24 26 28
9 9 8 8 7 7 7 7 8 8 8 8 9 9 10 10 11 11 11 11 11 11 12 11 10 11 12 14 15 16 16 16 16 16 16 14 12 10 10 10 10 10 9 9 10 10 10 10 11 10 10 10 10 10 9 8 7 7 7 7 7 7 8 8 8 9 9 10 11 12 12 11 11 11 11 10 10 10 11 11 11 13 14 14 16 20
9 8 8 8 8 7 7 8 8 8 8 9 10 10 10 10 10 10 9 9 9 10 10 10 10 9 10 11 12 13 14 13 13 13 13 11 10 9 9 9 9 10 10 9 9 9 10 10 11 11 11 10 10 10 9 8 8 8 9 7 7 7 8 8 8 8 8 9 10 10 11 10 10 11 11 11 11 11 10 10 10 11 11 11 11 12
9 9 8 8 7 7 8 8 8 9 9 9 9 9 9 9 8 8 8 8 8 8 8 8 8 8 9 9 10 11 12 12 12 11 10 10 10 10 8 8 9 9 9 9 9 9 10 10 11 11 11 10 11 11 11 10 10 11 11 9 8 8 9 10 9 8 8 8 9 10 11 12 12 12 11 12 11 11 11 11 11 12 12 11 10 10
10 9 8 7 7 7 8 8 9 9 9 9 9 8 8 8 8 8 8 8 7 7 7 7 7 8 9 8 8 9 9 9 9 9 10 10 10 10 9 8 8 8 9 9 10 10 10 10 11 11 10 10 10 10 10 10 10 10 9 9 10 10 10 9 8 7 8 9 9 10 11 11 11 11 11 11 11 11 11 12 13 14 13 11 10 10
8 8 8 8 8 8 8 9 9 8 8 8 8 8 8 8 8 8 8 8 8 8 8 8 8 9 9 9 8 8 7 7 8 9 9 9 9 9 8 8 8 8 8 9 10 10 10 10 10 10 9 9 9 9 10 9 9 8 8 9 9 9 7 7 8 8 9 10 10 10 10 10 10 10 11 11 11 10 11 12 14 15 14 12 11 11
8 8 8 8 8 8 8 8 7 7 7 8 8 8 8 8 9 9 8 8 8 8 8 8 8 8 9 9 9 9 8 7 7 8 8 9 9 8 8 9 9 9 9 9 9 10 10 10 10 9 9 8 8 9 9 8 8 8 8 9 9 9 8 8 9 10 10 10 10 10 10 10 10 10 10 10 10 10 10 10 10 11 12 12 11 11
8 8 8 8 7 7 7 7 7 7 8 8 8 8 8 8 8 8 8 7 7 8 8 8 8 8 8 9 9 8 8 7 7 7 6 8 10 11 10 9 8 9 9 9 9 9 9 9 10 9 9 8 8 8 8 8 8 8 8 9 9 10 10 10 10 10 11 11 11 11 11 11 11 10 10 10 10 9 9 9 10 10 11 11 11 11
7 7 8 7 7 8 8 8 8 8 8 8 8 9 8 8 8 7 7 7 8 8 8 7 7 7 8 9 9 9 9 8 8 7 6 6 6 6 6 7 8 8 8 8 9 9 9 9 10 10 9 8 8 7 7 7 7 8 8 9 9 9 10 10 10 10 11 11 12 12 13 13 12 10 10 10 10 10 9 9 10 10 11 10 10 11
8 8 8 8 8 8 8 8 8 8 8 8 8 8 8 8 8 7 7 7 7 7 8 7 7 7 8 9 9 9 9 10 9 8 7 7 6 6 6 6 7 8 8 8 9 9 9 9 9 9 9 8 7 6 6 6 6 7 8 9 9 9 9 9 9 10 10 11 12 13 14 13 12 11 10 10 10 10 9 9 9 9 10 10 10 10
8 8 8 8 8 8 8 8 8 8 8 8 9 8 8 8 8 8 7 7 7 7 8 8 7 8 8 9 9 9 9 10 10 9 9 8 7 7 7 6 7 8 8 9 9 10 10 10 10 9 8 7 7 7 7 6 6 6 7 8 8 9 9 9 9 10 10 11 13 14 14 12 11 11 11 11 10 10 9 9 9 8 8 9 9 9
8 8 8 8 8 8 8 8 8 8 9 9 9 9 8 9 10 10 8 7 7 7 7 8 8 8 8 9 9 9 10 9 9 9 9 8 8 8 8 7 7 7 8 8 8 7 7 8 9 8 7 6 6 6 7 6 6 6 6 7 7 8 9 9 9 10 10 12 13 14 14 12 11 11 11 11 11 11 10 10 9 8 8 8 8 8
8 8 8 8 8 8 8 8 8 9 9 9 9 9 8 8 8 7 7 7 7 7 7 7 8 8 9 9 9 9 9 9 8 8 8 8 8 8 8 8 8 8 8 7 6 6 5 5 6 6 7 7 6 5 5 6 6 7 6 6 6 7 8 9 9 10 10 11 12 13 13 12 11 10 10 10 11 11 11 10 9 9 8 8 8 9
8 8 8 8 8 8 8 8 8 9 9 9 9 9 9 8 8 7 7 7 7 7 7 7 7 8 9 9 9 9 9 9 9 9 9 8 8 8 8 8 9 9 9 8 7 6 6 5 5 5 6 7 7 6 4 6 7 7 7 6 6 6 6 8 9 10 11 11 11 12 12 12 11 10 10 10 11 11 11 10 10 10 10 9 9 10
Wind_Direction
290 294 296 296 295 292 289 289 289 290 289 289 288 287 286 283 280 278 277 276 276 275 274 274 274 274 274 275 275 276 276 277 277 277 277 277 277 277 277 277 277 278 278 278 279 279 279 279 280 280 280 280 280 280 280 280 280 280 280 280 280 280 279 279 279 279 279 278 278 278 278 277 277 277 276 276 275 275 274 274 273 273 272 272 271 270
291 293 294 294 292 290 289 289 287 286 287 288 287 286 286 283 281 279 277 274 272 271 271 272 272 272 271 272 273 275 275 276 276 276 276 276 276 276 276 276 276 276 276 277 277 277 278 278 278 278 278 278 278 278 278 278 279 279 279 279 279 279 279 279 279 279 279 279 278 278 278 278 277 277 277 276 275 275 274 274 273 273 272 272 271 270
297 295 293 292 290 288 289 292 289 285 283 285 285 284 283 282 282 281 279 277 274 271 269 270 272 272 272 272 273 274 274 275 275 275 275 275 275 275 275 275 275 275 275 275 275 275 276 276 276 276 276 277 277 277 277 277 277 277 278 278 278 278 278 278 278 278 278 277 277 277 277 276 276 276 275 275 274 274 274 273 272 272 271 271 270 270
294 294 294 294 290 286 285 290 290 287 283 283 283 283 281 281 281 280 278 278 277 274 271 269 269 270 271 271 271 272 272 272 273 273 273 273 274 274 275 275 275 275 274 274 274 274 274 274 275 275 275 276 276 276 276 276 276 276 276 276 276 276 276 276 276 276 276 276 276 275 275 275 274 274 274 273 273 273 272 272 271 271 270 270 269 269
290 290 293 295 293 289 286 287 288 288 287 284 284 283 281 279 279 279 279 277 276 274 272 268 266 266 267 268 269 269 270 271 271 272 272 273 274 274 275 275 275 274 274 274 273 273 273 273 274 274 274 275 275 275 275 275 275 276 276 276 276 276 275 275 275 275 275 275 274 274 274 273 273 273 273 272 272 272 272 271 271 270 270 269 269 269
288 288 291 291 290 290 292 290 290 290 290 287 284 282 279 278 277 277 278 277 276 275 274 272 269 267 267 267 268 268 269 270 271 272 272 273 273 274 274 274 274 274 273 273 272 272 272 272 272 273 273 274 274 274 274 275 275 275 275 275 275 275 275 275 275 275 274 274 273 273 273 272 272 272 271 271 271 271 271 270 270 270 270 269 269 269
288 287 288 287 287 287 289 289 290 290 290 289 287 284 280 278 276 276 276 276 276 277 277 275 272 269 267 266 266 267 268 270 271 271 272 272 272 273 272 272 272 272 272 271 271 271 271 271 271 271 272 272 273 273 273 274 274 274 274 274 274 274 274 274 274 274 273 273 273 272 272 271 271 271 270 270 270 270 270 270 270 270 269 269 269 269
288 288 286 287 288 288 285 284 284 285 285 286 287 288 286 283 280 278 277 276 274 274 275 274 272 269 266 264 264 264 266 268 270 270 271 271 271 270 270 270 269 269 269 269 270 270 270 270 270 270 270 271 271 271 272 272 272 272 272 272 272 272 272 272 272 272 272 272 272 271 271 270 270 269 269 269 269 269 269 269 269 269 269 269 269 268
284 287 287 285 286 288 289 285 281 279 279 280 283 286 289 289 288 284 281 278 275 272 273 276 276 274 270 266 264 263 264 265 266 268 269 268 268 267 267 267 267 267 267 267 267 268 268 268 268 268 268 269 269 269 269 270 270 270 270 270 270 270 270 270 270 270 270 270 270 270 270 269 269 269 268 268 268 268 268 268 268 268 268 268 268 268
277 281 284 283 281 281 285 287 287 283 277 277 277 279 283 288 290 291 288 285 281 278 276 278 280 281 281 276 271 268 268 268 268 269 269 268 268 268 267 267 267 266 266 266 266 266 267 267 267 267 267 267 267 267 267 267 267 267 267 267 267 267 267 267 268 268 268 268 268 268 268 268 268 268 268 268 268 268 268 268 268 268 268 268 268 268
276 278 280 282 281 278 278 284 287 288 284 281 279 276 274 279 286 291 293 292 291 290 286 282 282 284 288 288 284 278 275 274 272 270 270 269 269 269 269 268 267 267 267 266 266 266 266 267 267 267 267 267 266 266 266 266 265 265 265 265 265 265 266 266 266 266 266 267 267 267 267 268 268 268 268 268 268 268 268 268 268 268 268 268 268 268
279 281 282 283 285 286 284 285 287 288 289 288 287 285 281 279 282 287 291 293 295 296 294 290 285 283 285 289 289 287 282 278 275 273 271 268 267 267 267 267 266 266 266 266 266 266 267 267 267 267 267 266 266 265 265 265 264 264 264 264 264 265 265 265 265 265 266 266 266 267 267 267 268 268 268 268 268 268 268 268 268 268 268 268 268 267
279 281 282 283 285 287 288 290 291 291 290 290 290 290 291 291 290 288 287 289 291 293 295 293 289 286 284 285 287 288 286 282 280 277 276 274 272 271 271 270 268 266 265 265 265 264 265 265 266 265 265 265 265 265 264 264 264 264 264 264 264 264 265 265 265 266 266 266 266 267 267 268 268 268 268 268 268 268 268 268 268 268 267 267 267 267
280 281 282 282 284 285 287 290 291 291 290 289 288 289 290 293 294 292 290 288 288 290 293 292 290 289 288 287 286 285 284 283 282 280 278 277 279 281 283 281 277 274 271 270 268 265 264 264 264 264 263 263 264 264 263 263 263 263 263 263 264 264 265 265 266 266 266 267 267 267 268 268 268 268 268 268 268 268 268 268 268 267 267 267 267 267
281 283 283 283 284 285 286 288 288 287 287 288 289 290 292 292 292 292 290 290 291 293 294 291 289 287 285 285 285 284 282 282 282 282 282 281 281 284 285 282 279 276 274 273 272 271 268 266 265 265 264 262 262 261 261 262 262 262 263 263 264 264 265 266 266 266 267 267 267 268 268 268 268 268 268 268 268 268 268 268 267 267 267 267 267 266
280 282 282 283 283 283 284 285 285 286 287 289 290 291 292 292 292 291 290 290 293 295 295 294 293 291 286 282 282 286 288 288 287 287 287 285 285 286 287 285 282 279 275 275 275 276 275 272 270 269 268 264 262 261 261 261 262 262 264 264 265 265 266 266 267 267 267 267 268 268 268 268 268 268 268 268 268 268 267 267 267 267 267 267 266 266
278 278 278 280 281 282 283 283 283 284 288 290 290 289 288 289 290 291 289 290 292 293 292 294 296 297 297 295 293 292 297 295 292 289 288 287 287 290 291 287 284 282 280 278 278 279 279 277 274 272 271 268 266 265 265 265 266 266 267 268 268 267 267 267 267 267 267 267 267 268 268 268 268 268 268 268 267 267 267 267 267 267 267 266 266 266
274 275 277 278 280 282 284 285 285 285 287 288 289 288 286 286 287 289 288 290 291 291 292 292 291 293 297 298 299 301 307 300 295 291 289 286 287 289 289 283 280 280 281 280 279 277 276 274 271 269 268 267 267 267 268 269 270 270 271 271 270 269 269 268 267 267 266 266 267 267 267 267 267 267 267 267 267 267 266 266 266 266 266 266 266 265
275 274 275 277 279 280 281 282 284 286 288 288 290 291 290 288 287 287 286 286 286 287 288 289 287 286 288 289 294 301 309 301 295 290 287 286 286 288 289 284 281 280 279 278 276 275 272 269 266 265 265 266 267 268 269 269 270 270 271 270 270 270 269 268 267 267 266 266 266 266 266 266 266 266 266 266 266 266 266 266 266 266 266 265 265 265
273 272 271 275 279 280 280 279 282 285 288 290 292 291 289 289 288 286 284 284 283 282 283 283 284 284 286 288 293 299 307 303 295 288 284 284 285 288 290 286 282 279 277 276 275 275 273 270 268 268 267 268 269 269 269 269 269 269 268 268 268 267 267 267 267 266 266 266 266 266 266 266 266 266 266 266 266 266 266 266 266 265 265 265 265 265
270 270 269 273 277 280 280 280 282 285 288 291 291 289 285 286 286 284 283 285 284 283 283 281 282 285 290 291 294 299 307 303 295 289 286 284 284 285 289 285 282 280 278 277 277 276 276 274 273 272 271 272 273 273 273 272 271 270 269 268 267 266 266 266 265 265 265 265 265 265 265 265 265 265 265 265 266 266 266 266 266 266 266 265 265 265
268 270 271 272 273 274 277 280 283 285 288 288 286 282 281 285 286 287 288 288 288 287 286 284 286 289 293 292 293 296 301 295 288 286 288 285 284 284 289 286 283 280 279 280 280 280 278 278 277 277 277 278 278 278 278 277 276 275 273 271 269 268 267 266 266 266 265 264 264 264 264 263 263 263 264 264 264 265 265 266 266 266 266 266 265 265
263 267 271 272 272 272 274 278 281 282 282 278 274 272 276 282 286 288 291 291 291 291 292 291 291 291 290 289 290 291 290 284 281 280 282 282 285 288 292 288 285 282 280 282 285 286 283 281 280 280 280 280 280 280 280 279 279 278 276 275 274 272 271 271 270 269 267 267 266 265 264 264 263 263 263 263 263 263 264 264 265 265 266 265 265 265
257 262 266 267 267 266 268 271 273 275 275 273 272 274 279 282 285 287 291 293 295 296 295 294 293 290 287 286 286 285 284 281 280 279 277 280 284 288 293 290 286 282 281 282 285 286 285 281 279 279 280 279 280 280 280 279 278 278 277 276 275 274 274 274 273 272 271 270 269 268 267 266 265 264 263 263 263 263 263 263 263 264 264 264 265 265
253 256 260 262 264 267 271 274 278 281 284 285 286 287 288 290 292 293 294 295 295 295 294 293 291 289 289 289 287 284 283 281 280 279 279 281 283 285 288 287 285 283 283 284 285 285 284 282 280 279 279 278 278 278 278 278 277 276 275 275 274 274 274 274 274 273 273 272 271 270 268 268 267 266 265 264 264 263 262 262 262 263 263 263 263 264
266 269 273 277 280 282 285 286 288 289 290 290 291 293 297 300 300 298 294 293 293 294 294 291 288 287 289 289 287 285 287 285 281 279 280 283 285 286 286 285 284 283 284 285 285 284 283 282 281 280 278 277 277 277 276 276 275 275 274 273 272 272 272 272 273 272 272 271 271 270 269 268 267 266 266 265 265 264 264 263 263 263 263 263 263 263
279 282 284 285 287 288 288 289 290 290 292 293 295 298 302 303 301 296 290 291 293 293 291 288 288 288 290 288 286 287 291 291 287 283 282 283 283 284 286 286 285 284 286 286 285 284 282 282 282 281 279 277 276 275 274 274 273 273 272 271 271 270 270 271 271 271 271 270 269 269 268 267 267 266 266 266 265 265 264 264 264 263 263 263 263 262
282 284 285 286 287 288 288 289 291 293 295 297 298 299 299 298 294 289 286 291 293 290 285 285 288 291 292 290 289 289 291 289 287 284 283 280 279 281 286 289 288 287 288 287 285 282 280 280 280 280 278 276 274 273 272 272 272 272 271 270 270 269 269 269 269 270 270 269 269 268 267 267 266 266 265 265 265 265 264 264 264 264 264 263 262 261
282 283 284 285 287 289 291 293 295 296 297 296 296 295 294 290 284 282 285 290 291 288 283 283 285 288 290 290 290 288 285 283 284 285 286 283 280 281 289 290 289 288 290 290 287 283 276 274 275 277 276 275 274 273 272 272 272 271 271 270 270 269 269 268 268 268 269 268 268 268 267 266 266 265 265 265 264 264 264 263 263 263 263 261 260 260
284 285 286 287 289 291 293 294 295 294 294 293 292 291 289 283 279 278 283 286 285 282 281 282 283 285 288 290 290 288 282 282 287 293 297 290 286 285 290 289 288 288 292 293 291 287 279 274 274 276 278 279 280 279 279 277 275 274 273 271 270 269 268 267 267 267 268 268 268 268 268 268 267 266 266 265 265 264 264 263 263 263 262 260 259 259
291 291 291 291 292 292 292 291 291 291 291 290 290 288 285 279 275 274 276 276 276 275 277 279 282 284 286 289 290 290 288 293 301 305 305 293 287 287 291 289 288 287 288 289 291 292 293 288 283 281 284 287 288 288 286 284 280 276 272 270 269 268 267 267 267 268 268 269 270 270 270 270 269 269 268 267 266 266 265 264 264 264 263 260 258 257
295 295 293 293 294 293 291 290 289 288 287 286 284 281 277 273 271 268 268 268 269 271 273 277 279 281 282 282 283 286 290 298 303 305 302 292 286 286 288 287 287 286 284 279 281 286 293 295 296 296 294 293 293 293 290 286 282 276 271 270 270 270 270 271 271 272 273 273 274 274 275 274 274 272 271 270 269 268 267 266 265 265 263 261 258 257
297 296 294 294 293 291 289 287 285 284 282 280 278 275 273 270 268 267 266 266 267 269 272 276 280 282 283 282 281 282 285 292 299 302 301 294 289 287 288 287 287 288 288 282 277 276 280 289 297 302 300 298 298 297 295 291 287 282 276 276 278 280 281 283 283 283 285 283 283 284 283 281 279 278 276 274 273 271 269 268 267 266 264 262 260 258
296 294 292 291 290 287 285 283 281 279 277 276 275 274 273 271 271 270 271 270 270 271 273 277 281 284 286 286 284 283 284 288 295 299 301 295 289 287 289 288 289 291 292 289 285 282 280 289 298 304 304 303 301 299 299 297 296 294 293 295 297 298 299 298 296 295 294 292 292 291 289 286 285 283 280 278 276 274 272 271 269 268 267 265 263 261
293 291 289 288 287 285 284 282 280 278 276 275 274 274 275 275 276 276 276 276 275 274 274 274 276 279 282 284 285 286 286 290 295 298 298 292 288 287 289 289 292 294 295 294 294 295 296 299 302 304 303 302 300 298 297 299 304 309 316 316 312 307 304 301 298 295 294 292 289 287 286 285 284 283 281 279 278 277 275 274 273 271 270 268 267 265
290 288 287 286 285 285 284 284 283 281 279 277 277 278 279 280 281 280 279 279 277 276 275 272 271 271 273 276 279 282 285 290 294 296 295 292 290 290 292 293 296 297 296 298 302 305 305 302 300 299 297 297 297 297 297 302 307 312 316 315 312 307 302 299 297 295 295 294 291 289 287 286 284 282 281 280 280 280 279 277 275 274 272 270 269 267
286 284 284 284 285 285 286 285 284 284 284 285 285 286 286 286 284 282 280 278 276 275 274 273 271 269 268 269 272 275 280 286 291 294 296 296 296 295 293 293 295 297 300 304 306 306 303 299 296 295 293 292 293 297 301 304 306 306 305 307 306 303 299 298 297 297 297 297 295 294 293 291 289 287 285 283 283 282 280 278 276 275 273 272 270 268
284 284 284 285 285 285 285 285 286 287 288 290 291 291 290 287 283 281 279 276 274 272 272 272 272 271 270 271 273 276 281 286 291 294 296 296 294 291 289 291 294 298 303 303 302 300 296 294 295 295 294 292 291 293 297 301 302 301 300 301 299 296 294 294 295 296 297 297 296 296 295 293 292 290 288 286 284 282 279 276 274 273 272 271 270 268
283 283 285 286 286 286 286 287 288 290 292 292 292 291 289 285 281 278 275 273 272 270 270 271 272 274 275 278 280 283 286 289 292 293 293 291 288 287 288 292 297 300 301 297 293 290 288 289 291 293 295 295 295 295 295 296 297 298 301 300 297 293 291 294 296 296 296 296 295 295 294 292 291 289 287 286 283 281 278 277 275 274 274 273 272 269
283 283 284 285 285 286 286 288 290 292 292 291 290 288 285 282 279 276 273 271 271 271 271 273 275 279 281 283 285 286 287 287 288 288 287 286 286 286 289 293 295 296 296 292 288 285 285 285 286 287 289 291 293 295 297 296 297 300 304 303 301 299 300 300 298 297 294 293 293 294 294 293 292 290 288 287 285 284 283 283 283 281 279 279 278 276
283 284 285 287 288 289 288 289 290 290 289 289 287 286 283 283 282 282 281 278 278 279 282 284 285 285 284 282 282 283 284 284 284 284 284 285 285 286 287 288 290 292 293 291 289 287 286 285 286 287 288 288 290 292 293 295 298 302 304 302 300 299 301 300 299 298 297 295 294 294 294 294 293 291 288 286 284 282 281 281 281 281 280 276 274 274
285 287 289 291 292 291 288 287 287 286 286 285 285 285 285 286 287 287 288 288 289 291 295 297 297 295 293 290 287 285 285 284 284 284 284 284 284 284 284 285 288 291 293 292 291 288 287 286 286 287 288 290 291 292 293 295 298 300 302 300 300 300 299 300 302 305 304 300 297 295 294 293 291 289 286 284 281 279 278 276 276 276 276 273 270 267
288 289 290 290 289 287 287 287 287 287 289 288 288 286 286 286 287 287 288 290 293 297 301 301 300 299 297 297 297 296 293 290 287 286 285 283 281 280 281 283 286 290 292 291 291 289 288 286 285 285 288 290 290 290 292 296 299 301 300 303 306 308 308 310 312 312 307 302 299 297 294 292 289 286 284 282 281 279 278 276 275 274 272 272 269 267
288 287 287 286 286 286 287 288 290 292 293 291 290 288 287 286 287 287 288 290 294 298 301 302 300 298 296 297 299 301 301 298 293 289 284 282 283 285 287 288 288 287 287 286 288 290 292 290 289 288 290 290 290 290 291 296 299 301 303 308 311 311 307 309 311 311 307 304 302 300 297 294 291 287 284 282 280 278 277 275 273 271 270 268 267 266
284 284 285 286 288 290 292 292 293 293 292 290 289 289 289 288 289 289 290 292 295 298 300 302 302 300 298 299 301 302 303 302 300 296 289 287 289 292 293 291 289 287 284 282 283 286 290 292 294 295 295 291 288 287 290 294 297 300 304 312 313 311 305 305 307 309 308 307 305 303 301 298 294 290 286 283 281 278 276 274 273 272 271 268 267 266
284 286 288 290 292 293 292 293 294 293 291 290 291 291 292 292 291 291 291 293 296 298 299 300 299 298 297 300 303 304 305 304 304 303 302 298 296 295 292 289 288 288 286 284 282 281 282 285 289 293 296 293 288 284 284 289 294 301 308 314 314 311 307 307 308 309 309 308 307 306 304 302 297 292 287 286 285 282 278 275 273 271 271 270 268 267
288 290 292 294 294 293 292 293 294 293 292 293 293 294 295 294 294 293 294 296 297 298 298 298 296 294 294 298 301 304 305 306 307 308 310 309 307 303 298 293 292 292 289 286 284 281 279 278 281 284 289 291 290 288 283 287 295 304 310 313 312 310 309 309 310 311 311 310 309 308 309 306 302 296 292 291 289 287 284 279 274 271 269 269 269 268
292 294 295 295 294 293 292 294 294 295 294 295 295 295 296 297 298 300 300 301 300 299 298 298 297 295 295 297 299 301 302 304 306 309 312 312 312 310 309 306 302 299 294 289 285 282 279 277 276 276 277 280 284 287 290 294 301 306 308 309 309 309 308 309 311 313 312 311 310 310 310 308 305 301 298 296 294 291 289 286 281 276 272 271 271 271
295 295 294 294 293 292 293 296 297 296 295 296 296 297 297 298 301 303 303 302 300 299 297 298 298 297 297 298 299 299 301 302 305 307 311 312 313 313 312 312 310 306 301 293 287 281 278 276 273 270 266 266 272 282 292 299 304 306 305 305 306 307 308 309 312 313 314 312 311 311 310 307 303 300 299 297 295 294 293 292 290 286 282 280 278 276
292 291 291 291 291 293 295 297 298 297 296 296 297 298 300 301 303 303 302 301 300 299 297 297 297 298 298 299 300 301 303 304 306 307 309 311 312 313 313 314 314 312 308 303 299 295 290 285 278 273 267 269 277 289 299 306 307 306 303 303 304 307 308 309 311 314 315 313 312 312 310 308 305 303 300 298 297 297 298 297 297 295 294 293 290 286
290 289 289 290 292 294 296 297 297 296 295 297 298 299 301 303 304 304 304 304 303 301 299 298 297 297 297 299 301 302 304 305 306 307 308 310 311 312 312 314 315 315 313 312 312 311 310 308 303 295 285 289 298 307 309 310 310 309 306 305 307 309 309 309 311 313 314 313 312 312 311 311 310 309 307 305 303 303 304 304 303 303 303 303 300 296